• In Uzbekistan
  • List of Countries
  • For 7 days
  • Water Temperature
  • Satellite Maps
  • Weather Map
  • Weather Widgets
  • user-avatar
    Login

    Hourly Weather Abu Dhabi

    Today, 23 May, Thursday

    Time Temperature Precipitation Wind Pressure Humidity
    00:00 +34°C° 0 mm 5 mps 756 mmHg 47%
    01:00 +34°C° 0 mm 5 mps 755 mmHg 48%
    02:00 +33°C° 0 mm 5 mps 755 mmHg 49%
    03:00 +33°C° 0 mm 5 mps 755 mmHg 49%
    04:00 +32°C° 0 mm 4 mps 755 mmHg 53%
    05:00 +33°C° 0 mm 4 mps 755 mmHg 51%
    06:00 +33°C° 0 mm 4 mps 755 mmHg 50%
    07:00 +33°C° 0 mm 4 mps 755 mmHg 49%
    08:00 +35°C° 0 mm 4 mps 755 mmHg 41%
    09:00 +37°C° 0 mm 5 mps 755 mmHg 33%
    10:00 +40°C° 0 mm 5 mps 756 mmHg 24%
    11:00 +40°C° 0 mm 6 mps 756 mmHg 23%
    12:00 +41°C° 0 mm 7 mps 755 mmHg 22%
    13:00 +41°C° 0 mm 7 mps 755 mmHg 21%
    14:00 +41°C° 0 mm 7 mps 755 mmHg 24%
    15:00 +40°C° 0 mm 7 mps 755 mmHg 26%
    16:00 +39°C° 0 mm 7 mps 755 mmHg 28%
    17:00 +38°C° 0 mm 6 mps 755 mmHg 31%
    18:00 +37°C° 0 mm 5 mps 755 mmHg 34%
    19:00 +36°C° 0 mm 4 mps 755 mmHg 37%
    20:00 +35°C° 0 mm 3 mps 755 mmHg 38%
    21:00 +35°C° 0 mm 3 mps 755 mmHg 40%
    22:00 +34°C° 0 mm 2 mps 755 mmHg 42%
    23:00 +34°C° 0 mm 2 mps 755 mmHg 42%

    Tomorrow, 24 May, Friday

    Time Temperature Precipitation Wind Pressure Humidity
    00:00 +33°C° 0 mm 1 mps 755 mmHg 43%
    01:00 +32°C° 0 mm 1 mps 755 mmHg 43%
    02:00 +32°C° 0 mm 1 mps 754 mmHg 43%
    03:00 +31°C° 0 mm 1 mps 754 mmHg 43%
    04:00 +31°C° 0 mm 1 mps 754 mmHg 43%
    05:00 +32°C° 0 mm 1 mps 755 mmHg 41%
    06:00 +32°C° 0 mm 1 mps 755 mmHg 40%
    07:00 +31°C° 0 mm 0 mps 755 mmHg 38%
    08:00 +34°C° 0 mm 1 mps 756 mmHg 34%
    09:00 +35°C° 0 mm 1 mps 756 mmHg 31%
    10:00 +36°C° 0 mm 1 mps 756 mmHg 28%
    11:00 +38°C° 0 mm 2 mps 756 mmHg 25%
    12:00 +39°C° 0 mm 3 mps 756 mmHg 22%
    13:00 +40°C° 0 mm 3 mps 756 mmHg 19%
    14:00 +41°C° 0 mm 4 mps 755 mmHg 19%
    15:00 +41°C° 0 mm 4 mps 755 mmHg 20%
    16:00 +40°C° 0 mm 4 mps 754 mmHg 21%
    17:00 +38°C° 0 mm 4 mps 754 mmHg 24%
    18:00 +37°C° 0 mm 3 mps 754 mmHg 27%
    19:00 +36°C° 0 mm 3 mps 754 mmHg 30%
    20:00 +35°C° 0 mm 2 mps 755 mmHg 32%
    21:00 +35°C° 0 mm 2 mps 755 mmHg 34%
    22:00 +34°C° 0 mm 2 mps 756 mmHg 36%
    23:00 +34°C° 0 mm 2 mps 755 mmHg 37%

    Day after tomorrow, 25 May, Saturday

    Time Temperature Precipitation Wind Pressure Humidity
    00:00 +34°C° 0 mm 2 mps 755 mmHg 37%
    01:00 +32°C° 0 mm 1 mps 755 mmHg 37%
    02:00 +32°C° 0 mm 1 mps 755 mmHg 37%
    03:00 +31°C° 0 mm 1 mps 754 mmHg 37%
    04:00 +31°C° 0 mm 1 mps 754 mmHg 36%
    05:00 +31°C° 0 mm 1 mps 754 mmHg 36%
    06:00 +32°C° 0 mm 2 mps 755 mmHg 36%
    07:00 +32°C° 0 mm 2 mps 755 mmHg 35%
    08:00 +33°C° 0 mm 1 mps 755 mmHg 32%
    09:00 +35°C° 0 mm 1 mps 756 mmHg 29%
    10:00 +36°C° 0 mm 1 mps 756 mmHg 25%
    11:00 +37°C° 0 mm 1 mps 756 mmHg 23%
    12:00 +39°C° 0 mm 2 mps 756 mmHg 20%
    13:00 +42°C° 0 mm 3 mps 755 mmHg 18%
    14:00 +42°C° 0 mm 4 mps 755 mmHg 20%
    15:00 +41°C° 0 mm 4 mps 754 mmHg 21%
    16:00 +41°C° 0 mm 5 mps 754 mmHg 23%
    17:00 +40°C° 0 mm 5 mps 754 mmHg 27%
    18:00 +38°C° 0 mm 4 mps 754 mmHg 30%
    19:00 +36°C° 0 mm 4 mps 754 mmHg 34%
    20:00 +36°C° 0 mm 4 mps 754 mmHg 35%
    21:00 +36°C° 0 mm 4 mps 754 mmHg 36%
    22:00 +35°C° 0 mm 3 mps 755 mmHg 38%
    23:00 +35°C° 0 mm 3 mps 754 mmHg 39%

    26 May, Sunday

    Time Temperature Precipitation Wind Pressure Humidity
    00:00 +34°C° 0 mm 3 mps 754 mmHg 40%
    01:00 +34°C° 0 mm 2 mps 754 mmHg 42%
    02:00 +34°C° 0 mm 3 mps 753 mmHg 44%
    03:00 +33°C° 0 mm 3 mps 753 mmHg 45%
    04:00 +33°C° 0 mm 3 mps 753 mmHg 47%
    05:00 +32°C° 0 mm 2 mps 753 mmHg 47%
    06:00 +32°C° 0 mm 2 mps 754 mmHg 47%
    07:00 +32°C° 0 mm 2 mps 754 mmHg 47%
    08:00 +34°C° 0 mm 1 mps 754 mmHg 41%
    09:00 +35°C° 0 mm 1 mps 754 mmHg 35%
    10:00 +35°C° 0 mm 0 mps 755 mmHg 29%
    11:00 +39°C° 0 mm 1 mps 754 mmHg 26%
    12:00 +41°C° 0 mm 2 mps 754 mmHg 22%
    13:00 +42°C° 0 mm 2 mps 754 mmHg 18%
    14:00 +43°C° 0 mm 3 mps 753 mmHg 19%
    15:00 +44°C° 0 mm 4 mps 753 mmHg 19%
    16:00 +45°C° 0 mm 5 mps 752 mmHg 19%
    17:00 +42°C° 0 mm 6 mps 753 mmHg 25%
    18:00 +40°C° 0 mm 6 mps 753 mmHg 30%
    19:00 +38°C° 0 mm 7 mps 753 mmHg 36%
    20:00 +38°C° 0 mm 6 mps 753 mmHg 38%
    21:00 +36°C° 0 mm 5 mps 753 mmHg 41%
    22:00 +36°C° 0 mm 4 mps 754 mmHg 43%
    23:00 +35°C° 0 mm 4 mps 753 mmHg 44%

    27 May, Monday

    Time Temperature Precipitation Wind Pressure Humidity
    00:00 +35°C° 0 mm 3 mps 753 mmHg 45%
    01:00 +35°C° 0 mm 3 mps 753 mmHg 46%
    02:00 +34°C° 0 mm 3 mps 753 mmHg 48%
    03:00 +34°C° 0 mm 3 mps 753 mmHg 49%
    04:00 +32°C° 0 mm 2 mps 752 mmHg 51%
    05:00 +34°C° 0 mm 2 mps 753 mmHg 48%
    06:00 +34°C° 0 mm 2 mps 753 mmHg 46%
    07:00 +33°C° 0 mm 1 mps 753 mmHg 44%
    08:00 +35°C° 0 mm 1 mps 754 mmHg 36%
    09:00 +39°C° 0 mm 1 mps 754 mmHg 29%
    10:00 +41°C° 0 mm 1 mps 754 mmHg 22%
    11:00 +42°C° 0 mm 2 mps 754 mmHg 20%
    12:00 +44°C° 0 mm 3 mps 753 mmHg 19%
    13:00 +45°C° 0 mm 4 mps 753 mmHg 18%
    14:00 +45°C° 0 mm 5 mps 753 mmHg 22%
    15:00 +43°C° 0 mm 7 mps 752 mmHg 26%
    16:00 +41°C° 0 mm 8 mps 752 mmHg 31%
    17:00 +40°C° 0 mm 7 mps 752 mmHg 33%
    18:00 +39°C° 0 mm 7 mps 752 mmHg 35%
    19:00 +38°C° 0 mm 6 mps 752 mmHg 37%
    20:00 +37°C° 0 mm 5 mps 753 mmHg 38%
    21:00 +37°C° 0 mm 5 mps 753 mmHg 38%
    22:00 +36°C° 0 mm 4 mps 753 mmHg 39%
    23:00 +36°C° 0 mm 4 mps 753 mmHg 40%

    28 May, Tuesday

    Time Temperature Precipitation Wind Pressure Humidity
    00:00 +36°C° 0 mm 3 mps 753 mmHg 42%
    01:00 +35°C° 0 mm 3 mps 752 mmHg 43%
    02:00 +35°C° 0 mm 3 mps 752 mmHg 44%
    03:00 +34°C° 0 mm 2 mps 752 mmHg 46%
    04:00 +33°C° 0 mm 1 mps 752 mmHg 47%
    05:00 +33°C° 0 mm 1 mps 752 mmHg 45%
    06:00 +32°C° 0 mm 0 mps 753 mmHg 43%
    07:00 +32°C° 0 mm 0 mps 753 mmHg 40%
    08:00 +33°C° 0 mm 0 mps 754 mmHg 36%
    09:00 +35°C° 0 mm 0 mps 754 mmHg 31%
    10:00 +36°C° 0 mm 0 mps 754 mmHg 27%
    11:00 +40°C° 0 mm 1 mps 753 mmHg 24%
    12:00 +41°C° 0 mm 2 mps 753 mmHg 22%
    13:00 +43°C° 0 mm 4 mps 753 mmHg 19%
    14:00 +43°C° 0 mm 4 mps 752 mmHg 21%
    15:00 +42°C° 0 mm 5 mps 752 mmHg 23%
    16:00 +42°C° 0 mm 6 mps 752 mmHg 26%
    17:00 +41°C° 0 mm 5 mps 752 mmHg 28%
    18:00 +40°C° 0 mm 5 mps 752 mmHg 31%
    19:00 +37°C° 0 mm 4 mps 752 mmHg 33%
    20:00 +37°C° 0 mm 3 mps 753 mmHg 35%
    21:00 +37°C° 0 mm 2 mps 753 mmHg 36%
    22:00 +35°C° 0 mm 1 mps 753 mmHg 37%
    23:00 +35°C° 0 mm 1 mps 753 mmHg 38%
    Show more